Temp
22 23 23 26 26 28 27 29 29 30 30 29 30 30 28 25 25 25 24 23 22 22 22 21 20 20 20 19 18 18 18 17 17 18 18 18 19 19 19 19 19 19 19 19
22 22 25 26 26 25 26 26 28 30 30 29 30 30 30 27 26 26 25 24 23 23 22 21 20 20 20 19 19 18 18 18 19 18 18 19 19 19 19 19 19 19 19 19
23 25 25 25 25 23 25 26 27 28 29 29 29 29 30 29 26 26 25 25 24 23 23 21 21 20 20 20 19 18 21 21 20 18 18 18 18 18 19 19 19 19 20 19
23 25 23 24 24 24 25 27 26 27 27 27 29 28 29 30 28 27 26 25 24 24 23 22 21 21 21 20 19 18 18 21 21 20 18 18 19 20 20 20 20 20 20 19
23 23 23 23 24 25 25 27 26 26 26 28 29 28 31 31 29 28 27 26 25 24 24 23 22 22 21 21 20 19 18 20 21 21 19 18 19 20 20 20 19 19 19 20
23 24 25 24 25 25 25 25 25 26 26 26 28 28 30 29 30 29 29 27 26 26 24 24 23 22 22 21 20 20 18 20 21 21 21 20 19 20 20 19 20 20 19 19
22 23 24 25 24 25 24 25 25 24 25 25 29 28 29 32 31 31 31 28 27 26 25 24 24 23 22 21 21 20 19 19 21 20 21 21 21 19 19 19 19 20 20 20
22 22 24 25 25 25 24 25 26 24 26 27 28 28 29 31 30 30 31 30 28 27 26 25 24 23 23 22 21 20 19 21 21 20 21 21 21 19 19 19 20 20 20 21
21 22 22 21 24 25 25 24 27 27 28 27 29 29 30 31 31 30 30 30 30 28 27 26 25 24 23 22 21 20 19 20 21 21 21 21 21 20 19 19 20 19 19 20
19 18 21 22 21 22 24 26 24 26 24 25 28 29 28 29 29 31 31 31 30 30 28 27 26 24 24 23 22 21 20 20 22 21 21 21 21 21 21 20 21 20 19 20
17 17 20 20 21 23 23 23 25 26 26 26 26 28 31 30 30 30 31 31 31 31 30 28 27 25 24 23 23 21 20 19 19 20 21 21 21 21 21 21 21 21 21 21
16 17 17 20 21 20 20 23 25 24 24 26 27 29 31 30 31 31 31 31 31 31 30 29 27 26 25 24 23 22 21 20 20 20 21 22 22 22 20 21 21 21 21 21
15 16 16 18 20 20 20 22 22 25 26 25 25 26 30 30 30 30 30 29 29 28 29 29 28 27 25 24 23 23 22 22 21 20 20 20 21 21 21 22 22 22 22 22
12 15 15 18 17 17 17 19 19 22 23 24 25 27 28 29 29 28 26 26 26 26 27 28 28 27 26 24 23 22 23 23 22 21 21 20 22 23 23 23 23 23 22 22
13 13 15 15 16 16 15 16 17 18 20 23 25 26 27 28 27 24 23 24 23 25 26 26 27 27 26 25 24 22 23 23 23 22 22 21 24 23 23 23 23 23 23 23
13 12 13 13 15 16 15 17 17 18 18 20 21 22 26 25 24 24 23 22 23 23 23 23 24 25 26 25 23 23 22 22 22 22 21 21 23 24 24 24 23 23 23 23
11 12 12 13 15 15 15 17 18 19 19 19 19 22 25 22 24 22 20 20 20 20 21 21 21 22 24 25 24 23 22 22 22 21 22 22 24 24 24 24 24 24 24 24
11 10 11 13 14 13 18 16 16 19 20 20 21 22 20 19 19 20 18 17 18 18 18 18 19 21 22 24 26 24 23 21 21 21 21 23 24 25 24 24 24 24 24 24
12 9 10 12 14 16 16 10 10 10 18 17 17 19 17 16 17 18 17 16 16 15 15 16 18 19 20 22 24 25 23 22 21 20 22 23 24 24 23 24 24 25 24 24
12 11 8 11 11 12 10 8 7 8 11 12 13 15 14 14 19 22 15 15 13 13 14 15 17 19 21 22 23 25 23 22 21 21 23 24 24 25 25 25 24 25 24 25
8 7 7 9 9 13 10 9 7 8 10 8 9 10 11 13 15 14 14 13 12 12 12 14 16 18 21 24 24 25 23 22 22 21 20 20 21 24 25 25 25 25 25 24
6 5 7 7 8 9 8 10 7 6 5 6 7 8 9 10 11 13 13 12 11 11 11 13 15 16 19 23 24 24 22 21 20 21 20 20 22 22 21 23 24 23 23 24
6 7 7 8 10 9 6 6 6 5 5 5 6 6 7 8 9 11 12 11 12 11 12 11 13 15 17 20 22 21 21 20 20 20 20 20 20 20 21 23 23 22 23 21
4 1 4 6 9 8 5 6 6 5 5 5 6 6 7 8 8 9 10 10 11 12 12 11 11 13 14 16 18 19 19 19 19 19 19 19 19 20 21 20 21 20 21 21
3 2 4 5 7 3 5 5 4 5 5 5 5 6 6 7 8 8 8 9 11 11 12 11 12 11 11 13 14 16 18 18 19 19 20 20 20 20 20 20 21 21 22 22
1 3 3 4 3 3 3 4 4 4 4 5 5 7 6 7 7 7 7 9 9 10 10 12 11 11 12 11 12 13 16 18 19 19 19 20 21 20 21 21 21 21 21 21
Height
1490 1490 1482 1478 1480 1474 1475 1472 1474 1471 1468 1475 1475 1475 1486 1496 1499 1501 1506 1512 1517 1522 1529 1535 1541 1546 1551 1555 1559 1562 1566 1570 1573 1576 1580 1584 1587 1590 1593 1595 1596 1598 1600 1600
1488 1483 1476 1478 1480 1484 1482 1483 1477 1467 1468 1474 1471 1473 1471 1487 1493 1496 1500 1507 1512 1519 1525 1531 1536 1541 1546 1551 1555 1558 1562 1566 1570 1574 1578 1583 1586 1589 1592 1594 1595 1597 1599 1600
1479 1470 1476 1478 1481 1489 1483 1482 1476 1474 1471 1474 1472 1473 1471 1475 1488 1493 1498 1503 1509 1513 1518 1525 1531 1536 1542 1546 1550 1554 1557 1562 1566 1572 1576 1579 1583 1586 1589 1591 1593 1595 1597 1599
1476 1471 1476 1476 1480 1481 1481 1476 1480 1479 1481 1481 1469 1480 1466 1467 1479 1486 1491 1497 1501 1507 1513 1519 1525 1530 1534 1540 1546 1551 1554 1558 1563 1567 1573 1576 1580 1584 1587 1590 1592 1594 1596 1598
1470 1470 1473 1476 1474 1473 1475 1471 1478 1482 1482 1474 1465 1475 1451 1454 1469 1475 1481 1488 1494 1500 1505 1510 1516 1521 1528 1535 1540 1546 1550 1554 1559 1562 1568 1572 1577 1581 1584 1587 1590 1591 1594 1596
1464 1463 1465 1467 1468 1470 1472 1476 1479 1478 1479 1485 1468 1469 1455 1454 1457 1464 1472 1479 1485 1491 1497 1503 1509 1517 1523 1530 1535 1540 1544 1548 1553 1558 1563 1567 1573 1577 1581 1583 1586 1589 1592 1594
1463 1459 1463 1463 1465 1467 1472 1475 1480 1487 1482 1474 1455 1464 1454 1438 1443 1452 1460 1470 1477 1483 1489 1495 1502 1508 1514 1520 1526 1533 1537 1541 1547 1552 1557 1562 1567 1572 1576 1579 1583 1587 1589 1592
1461 1464 1455 1456 1456 1458 1464 1461 1462 1478 1466 1461 1451 1454 1448 1444 1449 1448 1454 1459 1469 1476 1481 1487 1493 1499 1505 1511 1517 1524 1527 1532 1540 1546 1551 1556 1562 1567 1572 1575 1580 1583 1586 1588
1465 1461 1457 1462 1457 1454 1454 1462 1447 1446 1437 1448 1435 1443 1436 1435 1443 1450 1453 1456 1460 1466 1472 1478 1485 1491 1497 1503 1509 1514 1519 1525 1532 1539 1546 1551 1556 1562 1567 1571 1574 1577 1581 1584
1476 1476 1458 1459 1467 1462 1454 1447 1461 1451 1467 1465 1442 1436 1442 1440 1441 1440 1445 1449 1453 1458 1464 1470 1476 1482 1489 1495 1501 1507 1512 1516 1523 1532 1538 1544 1550 1555 1561 1565 1568 1572 1576 1578
1486 1482 1462 1467 1458 1450 1454 1456 1447 1441 1445 1452 1456 1435 1417 1424 1429 1437 1437 1442 1445 1450 1455 1461 1467 1473 1480 1488 1495 1500 1506 1511 1517 1523 1530 1536 1542 1548 1554 1559 1562 1566 1570 1573
1487 1482 1475 1461 1456 1458 1456 1444 1441 1446 1450 1442 1438 1433 1416 1422 1424 1430 1434 1436 1439 1444 1449 1455 1462 1468 1474 1479 1486 1491 1497 1503 1508 1515 1520 1527 1534 1541 1546 1552 1556 1560 1564 1567
1489 1478 1481 1469 1460 1458 1456 1449 1447 1435 1430 1437 1445 1441 1416 1425 1428 1432 1437 1439 1441 1444 1446 1450 1455 1460 1465 1471 1477 1483 1489 1495 1501 1507 1513 1519 1525 1532 1538 1544 1550 1554 1558 1561
1499 1483 1480 1462 1467 1469 1471 1463 1460 1448 1444 1439 1434 1429 1421 1425 1429 1435 1441 1444 1444 1444 1444 1445 1448 1453 1458 1463 1468 1474 1481 1488 1494 1500 1506 1511 1516 1523 1530 1536 1542 1547 1552 1556
1498 1488 1480 1476 1474 1477 1477 1474 1469 1464 1454 1442 1434 1432 1426 1424 1431 1442 1444 1445 1445 1444 1443 1447 1448 1450 1455 1459 1463 1468 1475 1481 1488 1492 1498 1502 1509 1517 1524 1529 1535 1540 1545 1549
1494 1491 1487 1483 1474 1470 1470 1464 1463 1461 1460 1456 1450 1442 1427 1432 1437 1441 1443 1442 1441 1440 1443 1445 1445 1447 1449 1452 1455 1460 1465 1471 1478 1482 1488 1495 1501 1508 1515 1521 1527 1532 1537 1542
1496 1491 1486 1477 1466 1469 1467 1452 1451 1451 1452 1453 1453 1443 1433 1443 1440 1441 1444 1443 1442 1442 1442 1441 1441 1441 1443 1445 1450 1452 1456 1465 1469 1473 1479 1486 1492 1499 1505 1512 1519 1524 1529 1535
1494 1492 1487 1478 1471 1471 1442 1450 1451 1441 1441 1445 1444 1440 1445 1450 1447 1446 1445 1443 1441 1439 1438 1436 1435 1436 1437 1439 1442 1447 1453 1457 1463 1468 1472 1477 1483 1490 1498 1504 1509 1516 1521 1526
1489 1498 1488 1477 1462 1448 1443 1469 1471 1470 1442 1452 1455 1450 1453 1455 1450 1445 1445 1441 1438 1435 1433 1432 1432 1430 1430 1430 1434 1439 1445 1449 1455 1457 1462 1468 1475 1482 1489 1494 1500 1507 1512 1517
1482 1486 1495 1478 1473 1462 1469 1478 1478 1479 1470 1466 1464 1460 1460 1456 1442 1435 1444 1441 1437 1433 1429 1425 1422 1418 1418 1419 1425 1430 1434 1440 1442 1445 1451 1461 1468 1474 1480 1487 1492 1499 1504 1509
1485 1490 1492 1487 1480 1462 1470 1475 1479 1476 1472 1475 1471 1468 1463 1459 1453 1449 1446 1442 1437 1431 1424 1420 1417 1413 1411 1413 1416 1421 1426 1428 1433 1446 1451 1456 1462 1468 1475 1481 1487 1492 1497 1502
1489 1493 1489 1490 1484 1472 1474 1472 1478 1478 1476 1474 1470 1467 1465 1461 1456 1450 1446 1443 1438 1431 1423 1419 1415 1411 1410 1411 1414 1417 1421 1430 1435 1442 1446 1450 1455 1463 1469 1475 1480 1485 1489 1494
1489 1488 1482 1478 1467 1473 1476 1477 1477 1476 1475 1472 1469 1465 1464 1460 1456 1452 1446 1441 1437 1433 1427 1422 1418 1415 1411 1410 1415 1419 1422 1427 1431 1436 1441 1446 1451 1457 1464 1468 1473 1477 1481 1486
1495 1497 1490 1484 1470 1474 1475 1471 1473 1472 1470 1468 1466 1462 1460 1458 1455 1451 1447 1442 1438 1433 1429 1424 1422 1420 1415 1414 1414 1417 1421 1424 1427 1432 1437 1441 1446 1452 1458 1463 1467 1472 1475 1478
1498 1496 1489 1482 1476 1476 1471 1471 1470 1468 1466 1464 1462 1459 1457 1456 1453 1450 1445 1441 1439 1435 1431 1428 1423 1422 1419 1418 1417 1418 1420 1422 1423 1428 1431 1435 1441 1446 1452 1457 1463 1467 1470 1474
1500 1494 1489 1481 1481 1478 1473 1471 1468 1464 1460 1458 1456 1454 1454 1453 1451 1448 1444 1441 1438 1435 1433 1430 1427 1426 1423 1420 1420 1419 1419 1420 1423 1427 1429 1432 1438 1443 1449 1454 1459 1463 1466 1470
Wind_Speed
20 16 21 21 18 17 9 11 17 16 11 17 18 16 16 16 16 19 22 25 28 31 32 30 29 29 28 27 26 26 25 23 23 21 19 17 16 13 10 8 10 7 5 4
11 20 18 15 15 16 14 12 14 11 15 14 17 17 13 18 18 21 23 25 26 28 31 32 31 31 32 30 28 28 28 27 27 21 20 17 15 13 10 8 10 8 8 5
17 6 19 15 16 16 19 18 13 15 15 13 15 17 17 17 18 19 20 22 24 29 32 34 34 33 33 33 32 30 34 32 30 22 21 18 15 13 13 10 10 9 9 7
17 21 6 19 20 19 19 18 15 12 11 14 19 14 20 18 19 19 24 27 28 29 31 33 35 36 36 36 32 31 32 35 34 32 23 22 19 17 14 12 11 10 10 7
15 15 19 15 17 21 18 11 15 18 16 17 15 13 13 22 18 21 25 29 30 32 32 34 37 38 37 35 35 33 32 37 36 35 29 25 23 18 15 14 13 14 12 10
18 17 14 22 15 15 10 12 14 15 16 18 23 16 17 16 20 21 24 29 31 32 34 34 34 35 34 35 33 34 33 40 40 39 37 33 26 23 19 17 15 13 12 11
17 16 15 11 18 18 16 16 10 11 14 17 22 21 17 8 21 19 20 28 30 32 33 34 35 36 37 38 37 36 38 41 42 39 39 37 34 29 22 18 16 14 13 13
11 15 20 16 19 16 22 19 13 18 14 16 22 17 22 24 1 17 23 24 26 30 33 34 37 37 38 39 40 39 42 46 44 41 40 39 36 30 27 23 19 16 15 13
5 17 2 3 14 17 16 22 21 22 10 11 17 21 15 18 23 18 15 15 24 27 31 35 37 39 38 39 42 44 44 46 46 45 43 40 40 38 28 27 24 22 18 14
4 8 5 8 8 17 19 12 19 16 20 19 14 18 17 23 18 20 22 22 21 23 27 31 35 38 39 39 39 40 43 47 48 46 44 42 41 40 38 33 30 25 20 20
8 5 6 5 13 20 15 16 16 18 17 14 15 12 11 16 22 21 16 21 23 24 23 29 34 38 41 38 37 39 39 40 40 45 46 44 42 40 39 36 34 31 27 25
3 6 11 16 6 7 12 14 26 14 24 17 17 14 6 6 17 15 21 23 24 25 21 23 28 31 36 40 39 40 40 39 38 42 48 47 46 43 37 38 35 32 30 26
1 6 9 15 16 9 9 9 12 18 20 23 17 18 8 9 3 6 8 5 4 7 14 22 24 29 35 38 40 40 40 39 37 38 39 43 45 43 42 40 38 35 32 29
6 11 11 13 10 10 5 9 6 15 16 16 17 13 19 17 13 5 7 6 5 5 6 16 23 28 31 36 40 43 40 39 38 37 38 40 45 46 43 41 39 36 34 31
6 13 12 14 14 12 15 15 15 16 16 21 19 20 19 7 5 9 11 8 7 6 3 6 16 22 26 31 37 40 40 40 39 41 39 43 46 45 42 41 39 37 35 33
8 13 9 15 17 14 17 17 18 19 19 17 17 19 13 11 14 14 9 11 9 8 8 9 9 15 22 29 35 38 43 43 44 45 46 44 47 46 44 43 42 40 37 35
9 9 9 13 12 9 15 21 22 20 20 18 19 16 11 8 14 8 9 10 10 10 11 11 12 14 19 26 30 38 43 41 44 47 48 49 49 48 47 45 42 41 39 36
15 12 9 11 9 15 4 10 12 18 19 22 17 12 7 10 13 3 8 11 13 13 14 15 15 16 18 21 28 30 33 39 43 45 46 47 47 48 47 45 44 42 40 40
18 10 9 11 11 14 6 9 9 12 6 1 11 12 11 14 17 20 10 15 16 17 18 18 18 19 20 22 26 31 34 36 40 47 49 47 45 45 44 45 45 42 41 40
18 17 8 11 12 13 6 5 12 9 4 10 11 10 12 15 10 3 14 16 18 18 17 19 21 20 19 23 25 33 36 40 46 49 48 46 45 43 44 43 43 41 39 40
11 11 15 14 11 11 5 6 4 6 2 14 12 13 14 8 12 13 13 15 17 18 17 18 16 15 14 17 27 37 37 43 44 33 33 37 40 41 39 39 36 35 36 33
5 7 7 10 8 16 7 0 2 4 13 14 16 15 16 15 14 12 12 15 17 20 18 18 15 11 7 10 25 31 35 30 31 30 32 34 39 37 32 36 34 33 33 34
3 3 4 5 6 5 8 11 12 10 14 18 19 18 17 16 14 13 12 14 17 19 22 21 17 13 8 6 15 21 23 27 26 29 31 30 30 32 29 32 33 31 33 28
2 2 4 4 2 8 16 12 10 13 16 17 17 18 18 16 15 14 12 11 13 18 21 26 22 18 19 15 10 12 17 21 23 26 25 24 25 26 28 25 26 27 27 27
3 8 5 5 11 16 7 8 13 17 15 16 14 14 16 14 14 13 13 10 10 13 17 19 23 22 21 19 14 9 9 15 20 22 23 23 22 25 24 25 23 24 25 25
6 4 3 3 12 11 11 13 15 17 17 13 14 15 14 13 13 12 12 11 11 11 13 14 18 19 21 21 19 16 14 15 13 16 17 20 20 18 19 19 20 24 23 26
Wind_Direction
196 205 211 211 218 239 295 230 226 217 194 211 221 211 170 184 191 183 183 185 189 192 192 193 193 193 192 194 193 194 194 197 194 194 193 193 193 198 199 200 204 196 187 157
182 223 216 224 218 229 232 231 226 223 211 218 219 229 212 178 201 196 189 189 191 190 192 195 195 196 196 197 198 197 199 200 198 197 194 197 197 204 199 204 197 200 202 192
219 197 221 217 220 220 228 229 227 229 194 221 244 231 215 182 206 203 202 195 194 194 194 196 198 198 199 201 200 200 202 204 203 196 196 198 197 197 204 205 202 206 206 211
235 240 218 210 225 214 231 217 240 242 245 224 213 234 208 200 204 201 201 196 199 196 199 199 200 201 202 204 203 202 204 206 206 205 201 201 202 205 208 208 201 199 203 213
216 214 215 219 226 221 238 234 218 237 244 256 192 235 230 197 200 204 208 201 202 202 199 200 202 205 204 203 205 204 205 208 208 209 202 209 204 214 213 209 210 207 220 225
256 203 223 229 222 228 220 232 225 229 234 237 231 217 228 195 201 205 206 207 206 203 204 205 205 205 206 206 205 205 206 210 210 213 212 215 212 206 210 211 214 216 222 230
222 236 223 222 207 209 208 205 213 208 215 231 220 231 234 228 182 211 201 204 206 208 206 206 203 203 205 204 205 204 207 211 213 213 216 216 215 214 213 214 218 217 222 228
230 214 215 205 227 200 209 221 219 210 211 223 222 225 222 233 55 218 222 201 208 208 210 208 207 204 203 204 204 204 207 213 212 214 216 216 217 216 221 228 219 225 224 234
279 241 73 234 234 241 198 219 236 259 264 263 211 219 241 220 224 206 201 214 205 206 209 210 209 207 205 203 204 204 205 215 213 213 217 219 219 219 221 224 233 229 227 227
48 274 188 159 233 242 255 225 221 235 242 240 229 226 210 216 222 219 225 220 212 216 214 213 210 208 207 207 206 206 208 215 214 215 218 220 222 224 226 232 232 232 228 234
315 259 175 210 210 223 208 236 233 234 225 235 239 213 228 230 209 217 212 217 223 225 219 214 211 209 208 206 206 206 207 209 210 214 218 219 222 223 227 230 234 235 240 241
36 297 266 251 99 328 293 260 223 229 219 236 267 227 108 207 212 199 220 231 237 229 223 216 212 208 206 206 206 206 206 206 209 210 216 221 222 224 224 230 232 235 237 239
35 231 256 236 241 232 241 221 272 259 239 232 223 232 186 171 176 167 205 249 256 258 236 219 210 207 207 207 206 206 206 207 206 206 209 214 219 221 224 227 228 234 234 232
280 267 261 269 340 356 270 229 263 261 235 231 237 242 225 226 243 346 342 351 341 308 279 220 211 210 208 206 207 205 206 207 204 204 205 209 215 218 219 221 224 226 229 230
260 264 255 266 276 276 273 264 262 254 261 249 241 226 249 224 13 327 313 309 311 305 314 225 220 216 214 211 209 209 207 205 204 204 204 210 213 216 217 222 225 227 228 230
230 260 267 270 268 258 267 261 251 247 245 255 266 277 284 318 300 286 305 317 320 318 296 280 250 228 222 218 215 212 208 206 202 206 206 209 213 213 216 222 226 228 229 228
246 257 258 262 261 274 263 254 241 243 234 238 236 245 254 283 270 313 319 319 322 309 298 292 277 255 235 226 218 215 212 207 205 205 210 213 219 219 220 223 226 229 228 227
255 254 254 265 288 241 220 37 304 280 224 227 251 256 300 293 301 325 347 334 322 321 311 299 287 269 250 232 223 218 212 208 206 207 212 217 218 221 222 223 224 225 226 226
226 248 252 244 249 267 311 29 9 355 180 258 275 279 302 292 274 260 335 345 335 323 309 297 286 272 257 236 222 215 208 208 206 206 214 216 215 217 218 220 221 222 223 226
222 217 229 274 253 252 58 22 3 348 248 18 330 321 326 305 245 135 352 345 337 332 323 312 302 292 275 247 217 210 206 204 205 210 216 214 213 214 217 218 219 220 222 226
210 214 223 233 249 259 98 14 65 216 104 331 324 321 321 328 325 323 339 343 347 344 339 340 319 307 298 243 207 206 202 207 211 206 204 208 212 214 216 218 218 221 223 223
176 184 201 228 249 249 14 9 209 328 311 316 320 315 313 314 318 323 336 345 356 6 7 5 355 336 320 224 203 202 201 205 203 203 201 204 210 211 212 216 218 219 220 223
252 330 263 247 239 15 349 289 281 276 289 299 310 305 305 306 313 322 332 344 4 7 35 29 27 29 43 138 196 198 204 200 199 199 199 200 202 206 204 213 213 213 216 214
323 293 248 314 316 319 323 301 257 278 294 290 296 298 297 296 307 319 330 340 358 17 26 37 37 43 51 68 144 169 192 195 195 194 192 191 197 202 202 211 213 212 215 218
311 311 289 263 289 326 298 266 312 302 292 281 284 302 309 293 298 314 325 333 345 3 15 26 44 41 47 53 65 95 153 193 187 189 184 185 189 200 202 201 208 214 216 218
343 303 326 296 306 302 293 312 312 308 296 281 274 282 290 289 293 306 323 333 331 355 0 11 27 28 47 55 50 61 92 124 154 171 181 183 183 194 193 205 212 215 216 224